Year,Month,Day,Hour,Minute,Value (Times are PST for insolation in W/m^2)
2016,06,11,00,00,0.00
2016,06,11,00,01,0.00
2016,06,11,00,02,0.00
2016,06,11,00,03,0.00
2016,06,11,00,04,0.00
2016,06,11,00,05,0.00
2016,06,11,00,06,0.00
2016,06,11,00,07,0.00
2016,06,11,00,08,0.00
2016,06,11,00,09,0.00
2016,06,11,00,10,0.00
2016,06,11,00,11,0.00
2016,06,11,00,12,0.00
2016,06,11,00,13,0.00
2016,06,11,00,14,0.00
2016,06,11,00,15,0.00
2016,06,11,00,16,0.00
2016,06,11,00,17,0.00
2016,06,11,00,18,0.00
2016,06,11,00,19,0.00
2016,06,11,00,20,0.00
2016,06,11,00,21,0.00
2016,06,11,00,22,0.00
2016,06,11,00,23,0.00
2016,06,11,00,24,0.00
2016,06,11,00,25,0.00
2016,06,11,00,26,0.00
2016,06,11,00,27,0.00
2016,06,11,00,28,0.00
2016,06,11,00,29,0.00
2016,06,11,00,30,0.00
2016,06,11,00,31,0.00
2016,06,11,00,32,0.00
2016,06,11,00,33,0.00
2016,06,11,00,34,0.00
2016,06,11,00,35,0.00
2016,06,11,00,36,0.00
2016,06,11,00,37,0.00
2016,06,11,00,38,0.00
2016,06,11,00,39,0.00
2016,06,11,00,40,0.00
2016,06,11,00,41,0.00
2016,06,11,00,42,0.00
2016,06,11,00,43,0.00
2016,06,11,00,44,0.00
2016,06,11,00,45,0.00
2016,06,11,00,46,0.00
2016,06,11,00,47,0.00
2016,06,11,00,48,0.00
2016,06,11,00,49,0.00
2016,06,11,00,50,0.00
2016,06,11,00,51,0.00
2016,06,11,00,52,0.00
2016,06,11,00,53,0.00
2016,06,11,00,54,0.00
2016,06,11,00,55,0.00
2016,06,11,00,56,0.00
2016,06,11,00,57,0.00
2016,06,11,00,58,0.00
2016,06,11,00,59,0.00
2016,06,11,01,00,0.00
2016,06,11,01,01,0.00
2016,06,11,01,02,0.00
2016,06,11,01,03,0.00
2016,06,11,01,04,0.00
2016,06,11,01,05,0.00
2016,06,11,01,06,0.00
2016,06,11,01,07,0.00
2016,06,11,01,08,0.00
2016,06,11,01,09,0.00
2016,06,11,01,10,0.00
2016,06,11,01,11,0.00
2016,06,11,01,12,0.00
2016,06,11,01,13,0.00
2016,06,11,01,14,0.00
2016,06,11,01,15,0.00
2016,06,11,01,16,0.00
2016,06,11,01,17,0.00
2016,06,11,01,18,0.00
2016,06,11,01,19,0.00
2016,06,11,01,20,0.00
2016,06,11,01,21,0.00
2016,06,11,01,22,0.00
2016,06,11,01,23,0.00
2016,06,11,01,24,0.00
2016,06,11,01,25,0.00
2016,06,11,01,26,0.00
2016,06,11,01,27,0.00
2016,06,11,01,28,0.00
2016,06,11,01,29,0.00
2016,06,11,01,30,0.00
2016,06,11,01,31,0.00
2016,06,11,01,32,0.00
2016,06,11,01,33,0.00
2016,06,11,01,34,0.00
2016,06,11,01,35,0.00
2016,06,11,01,36,0.00
2016,06,11,01,37,0.00
2016,06,11,01,38,0.00
2016,06,11,01,39,0.00
2016,06,11,01,40,0.00
2016,06,11,01,41,0.00
2016,06,11,01,42,0.00
2016,06,11,01,43,0.00
2016,06,11,01,44,0.00
2016,06,11,01,45,0.00
2016,06,11,01,46,0.00
2016,06,11,01,47,0.00
2016,06,11,01,48,0.00
2016,06,11,01,49,0.00
2016,06,11,01,50,0.00
2016,06,11,01,51,0.00
2016,06,11,01,52,0.00
2016,06,11,01,53,0.00
2016,06,11,01,54,0.00
2016,06,11,01,55,0.00
2016,06,11,01,56,0.00
2016,06,11,01,57,0.00
2016,06,11,01,58,0.00
2016,06,11,01,59,0.00
2016,06,11,02,00,0.00
2016,06,11,02,01,0.00
2016,06,11,02,02,0.00
2016,06,11,02,03,0.00
2016,06,11,02,04,0.00
2016,06,11,02,05,0.00
2016,06,11,02,06,0.00
2016,06,11,02,07,0.00
2016,06,11,02,08,0.00
2016,06,11,02,09,0.00
2016,06,11,02,10,0.00
2016,06,11,02,11,0.00
2016,06,11,02,12,0.00
2016,06,11,02,13,0.00
2016,06,11,02,14,0.00
2016,06,11,02,15,0.00
2016,06,11,02,16,0.00
2016,06,11,02,17,0.00
2016,06,11,02,18,0.00
2016,06,11,02,19,0.00
2016,06,11,02,20,0.00
2016,06,11,02,21,0.00
2016,06,11,02,22,0.00
2016,06,11,02,23,0.00
2016,06,11,02,24,0.00
2016,06,11,02,25,0.00
2016,06,11,02,26,0.00
2016,06,11,02,27,0.00
2016,06,11,02,28,0.00
2016,06,11,02,29,0.00
2016,06,11,02,30,0.00
2016,06,11,02,31,0.00
2016,06,11,02,32,0.00
2016,06,11,02,33,0.00
2016,06,11,02,34,0.00
2016,06,11,02,35,0.00
2016,06,11,02,36,0.00
2016,06,11,02,37,0.00
2016,06,11,02,38,0.00
2016,06,11,02,39,0.00
2016,06,11,02,40,0.00
2016,06,11,02,41,0.00
2016,06,11,02,42,0.00
2016,06,11,02,43,0.00
2016,06,11,02,44,0.00
2016,06,11,02,45,0.00
2016,06,11,02,46,0.00
2016,06,11,02,47,0.00
2016,06,11,02,48,0.00
2016,06,11,02,49,0.00
2016,06,11,02,50,0.00
2016,06,11,02,51,0.00
2016,06,11,02,52,0.00
2016,06,11,02,53,0.00
2016,06,11,02,54,0.00
2016,06,11,02,55,0.00
2016,06,11,02,56,0.00
2016,06,11,02,57,0.00
2016,06,11,02,58,0.00
2016,06,11,02,59,0.00
2016,06,11,03,00,0.00
2016,06,11,03,01,0.00
2016,06,11,03,02,0.00
2016,06,11,03,03,0.00
2016,06,11,03,04,0.00
2016,06,11,03,05,0.00
2016,06,11,03,06,0.00
2016,06,11,03,07,0.00
2016,06,11,03,08,0.00
2016,06,11,03,09,0.00
2016,06,11,03,10,0.00
2016,06,11,03,11,0.00
2016,06,11,03,12,0.00
2016,06,11,03,13,0.00
2016,06,11,03,14,0.00
2016,06,11,03,15,0.00
2016,06,11,03,16,0.00
2016,06,11,03,17,0.00
2016,06,11,03,18,0.00
2016,06,11,03,19,0.00
2016,06,11,03,20,0.00
2016,06,11,03,21,0.00
2016,06,11,03,22,0.00
2016,06,11,03,23,0.00
2016,06,11,03,24,0.00
2016,06,11,03,25,0.00
2016,06,11,03,26,0.00
2016,06,11,03,27,0.00
2016,06,11,03,28,0.00
2016,06,11,03,29,0.00
2016,06,11,03,30,0.00
2016,06,11,03,31,0.00
2016,06,11,03,32,0.00
2016,06,11,03,33,0.00
2016,06,11,03,34,0.00
2016,06,11,03,35,0.00
2016,06,11,03,36,0.00
2016,06,11,03,37,0.00
2016,06,11,03,38,0.00
2016,06,11,03,39,0.00
2016,06,11,03,40,0.00
2016,06,11,03,41,0.00
2016,06,11,03,42,0.00
2016,06,11,03,43,0.00
2016,06,11,03,44,0.00
2016,06,11,03,45,0.00
2016,06,11,03,46,0.00
2016,06,11,03,47,0.00
2016,06,11,03,48,0.00
2016,06,11,03,49,0.00
2016,06,11,03,50,0.00
2016,06,11,03,51,0.00
2016,06,11,03,52,0.00
2016,06,11,03,53,0.00
2016,06,11,03,54,0.00
2016,06,11,03,55,0.00
2016,06,11,03,56,0.00
2016,06,11,03,57,0.00
2016,06,11,03,58,0.00
2016,06,11,03,59,0.00
2016,06,11,04,00,0.00
2016,06,11,04,01,0.00
2016,06,11,04,02,0.00
2016,06,11,04,03,0.00
2016,06,11,04,04,0.00
2016,06,11,04,08,0.00
2016,06,11,04,09,0.00
2016,06,11,04,10,0.00
2016,06,11,04,11,0.00
2016,06,11,04,12,0.00
2016,06,11,04,13,0.00
2016,06,11,04,14,0.00
2016,06,11,04,15,0.00
2016,06,11,04,16,0.00
2016,06,11,04,17,0.00
2016,06,11,04,18,0.00
2016,06,11,04,19,0.00
2016,06,11,04,20,0.00
2016,06,11,04,21,0.00
2016,06,11,04,22,0.00
2016,06,11,04,23,0.00
2016,06,11,04,24,0.00
2016,06,11,04,25,0.00
2016,06,11,04,26,0.00
2016,06,11,04,27,0.00
2016,06,11,04,28,0.00
2016,06,11,04,29,0.00
2016,06,11,04,30,0.00
2016,06,11,04,31,0.00
2016,06,11,04,32,0.00
2016,06,11,04,33,0.00
2016,06,11,04,34,0.00
2016,06,11,04,35,0.00
2016,06,11,04,36,0.00
2016,06,11,04,37,0.00
2016,06,11,04,38,0.00
2016,06,11,04,39,0.00
2016,06,11,04,40,0.00
2016,06,11,04,41,0.00
2016,06,11,04,42,0.00
2016,06,11,04,43,0.00
2016,06,11,04,44,0.00
2016,06,11,04,45,0.00
2016,06,11,04,46,0.00
2016,06,11,04,47,0.00
2016,06,11,04,48,0.00
2016,06,11,04,49,0.00
2016,06,11,04,50,0.00
2016,06,11,04,51,0.00
2016,06,11,04,52,0.00
2016,06,11,04,53,0.00
2016,06,11,04,54,0.00
2016,06,11,04,55,0.00
2016,06,11,04,56,0.00
2016,06,11,04,57,0.00
2016,06,11,04,58,0.00
2016,06,11,04,59,0.00
2016,06,11,05,00,0.00
2016,06,11,05,01,0.00
2016,06,11,05,02,0.00
2016,06,11,05,03,0.00
2016,06,11,05,04,0.00
2016,06,11,05,05,0.00
2016,06,11,05,06,0.00
2016,06,11,05,07,0.00
2016,06,11,05,08,0.00
2016,06,11,05,09,0.00
2016,06,11,05,10,0.00
2016,06,11,05,11,0.00
2016,06,11,05,12,0.00
2016,06,11,05,13,0.00
2016,06,11,05,14,0.00
2016,06,11,05,15,0.00
2016,06,11,05,16,0.00
2016,06,11,05,17,0.00
2016,06,11,05,18,0.00
2016,06,11,05,19,0.00
2016,06,11,05,20,0.00
2016,06,11,05,21,2.20
2016,06,11,05,22,5.00
2016,06,11,05,23,5.00
2016,06,11,05,24,5.00
2016,06,11,05,25,5.00
2016,06,11,05,26,5.00
2016,06,11,05,27,5.70
2016,06,11,05,28,7.00
2016,06,11,05,29,7.00
2016,06,11,05,30,7.00
2016,06,11,05,31,7.00
2016,06,11,05,32,7.00
2016,06,11,05,33,7.50
2016,06,11,05,34,9.00
2016,06,11,05,35,9.00
2016,06,11,05,36,9.00
2016,06,11,05,37,9.00
2016,06,11,05,38,10.70
2016,06,11,05,39,11.00
2016,06,11,05,40,11.00
2016,06,11,05,41,11.00
2016,06,11,05,42,11.00
2016,06,11,05,43,11.00
2016,06,11,05,44,11.00
2016,06,11,05,45,11.90
2016,06,11,05,46,12.00
2016,06,11,05,47,12.00
2016,06,11,05,48,12.80
2016,06,11,05,49,14.00
2016,06,11,05,50,14.00
2016,06,11,05,51,15.60
2016,06,11,05,52,16.00
2016,06,11,05,53,16.30
2016,06,11,05,54,18.00
2016,06,11,05,55,18.40
2016,06,11,05,56,19.00
2016,06,11,05,57,20.30
2016,06,11,05,58,21.00
2016,06,11,05,59,22.90
2016,06,11,06,00,25.10
2016,06,11,06,01,26.00
2016,06,11,06,02,27.00
2016,06,11,06,03,29.10
2016,06,11,06,04,30.00
2016,06,11,06,05,32.30
2016,06,11,06,06,35.00
2016,06,11,06,07,37.40
2016,06,11,06,08,39.90
2016,06,11,06,09,42.90
2016,06,11,06,10,45.60
2016,06,11,06,11,49.70
2016,06,11,06,12,55.00
2016,06,11,06,13,61.80
2016,06,11,06,14,65.10
2016,06,11,06,15,70.90
2016,06,11,06,16,69.00
2016,06,11,06,17,69.00
2016,06,11,06,18,71.10
2016,06,11,06,19,77.90
2016,06,11,06,20,90.60
2016,06,11,06,21,104.10
2016,06,11,06,22,112.80
2016,06,11,06,23,112.70
2016,06,11,06,24,105.80
2016,06,11,06,25,104.00
2016,06,11,06,26,104.00
2016,06,11,06,27,105.70
2016,06,11,06,28,114.90
2016,06,11,06,29,124.70
2016,06,11,06,30,134.80
2016,06,11,06,31,155.00
2016,06,11,06,32,163.00
2016,06,11,06,33,115.00
2016,06,11,06,34,98.20
2016,06,11,06,35,101.40
2016,06,11,06,36,117.00
2016,06,11,06,37,139.10
2016,06,11,06,38,164.40
2016,06,11,06,39,188.20
2016,06,11,06,40,186.90
2016,06,11,06,41,133.00
2016,06,11,06,42,123.00
2016,06,11,06,43,134.50
2016,06,11,06,44,148.70
2016,06,11,06,45,143.90
2016,06,11,06,46,119.20
2016,06,11,06,47,119.70
2016,06,11,06,48,133.10
2016,06,11,06,49,158.00
2016,06,11,06,50,148.40
2016,06,11,06,51,136.40
2016,06,11,06,52,125.60
2016,06,11,06,53,127.40
2016,06,11,06,54,133.50
2016,06,11,06,55,129.60
2016,06,11,06,56,128.70
2016,06,11,06,57,130.00
2016,06,11,06,58,131.00
2016,06,11,06,59,132.00
2016,06,11,07,00,136.00
2016,06,11,07,01,143.60
2016,06,11,07,02,269.00
2016,06,11,07,03,250.30
2016,06,11,07,04,188.00
2016,06,11,07,05,132.90
2016,06,11,07,06,107.30
2016,06,11,07,07,98.30
2016,06,11,07,08,95.20
2016,06,11,07,09,100.20
2016,06,11,07,10,111.00
2016,06,11,07,11,101.10
2016,06,11,07,12,101.40
2016,06,11,07,13,125.40
2016,06,11,07,14,166.40
2016,06,11,07,15,187.20
2016,06,11,07,16,200.80
2016,06,11,07,17,206.40
2016,06,11,07,18,209.00
2016,06,11,07,19,209.80
2016,06,11,07,20,204.00
2016,06,11,07,21,203.70
2016,06,11,07,22,204.80
2016,06,11,07,23,193.00
2016,06,11,07,24,191.30
2016,06,11,07,25,194.70
2016,06,11,07,26,209.60
2016,06,11,07,27,225.40
2016,06,11,07,28,246.10
2016,06,11,07,29,257.40
2016,06,11,07,30,258.30
2016,06,11,07,31,251.80
2016,06,11,07,32,254.00
2016,06,11,07,33,262.70
2016,06,11,07,34,268.20
2016,06,11,07,35,269.00
2016,06,11,07,36,274.50
2016,06,11,07,37,286.80
2016,06,11,07,38,294.80
2016,06,11,07,39,300.00
2016,06,11,07,40,305.70
2016,06,11,07,41,314.40
2016,06,11,07,42,321.40
2016,06,11,07,43,328.30
2016,06,11,07,44,337.40
2016,06,11,07,45,343.10
2016,06,11,07,46,348.20
2016,06,11,07,47,352.10
2016,06,11,07,48,357.80
2016,06,11,07,49,362.00
2016,06,11,07,50,366.90
2016,06,11,07,51,371.00
2016,06,11,07,52,353.40
2016,06,11,07,53,318.00
2016,06,11,07,54,311.60
2016,06,11,07,55,330.00
2016,06,11,07,56,343.70
2016,06,11,07,57,339.80
2016,06,11,07,58,261.90
2016,06,11,07,59,228.70
2016,06,11,08,00,207.60
2016,06,11,08,01,193.00
2016,06,11,08,02,235.90
2016,06,11,08,03,281.20
2016,06,11,08,04,311.00
2016,06,11,08,05,344.70
2016,06,11,08,06,357.50
2016,06,11,08,07,347.20
2016,06,11,08,08,371.90
2016,06,11,08,09,428.40
2016,06,11,08,10,453.30
2016,06,11,08,11,467.70
2016,06,11,08,12,474.10
2016,06,11,08,13,460.30
2016,06,11,08,14,391.60
2016,06,11,08,15,360.00
2016,06,11,08,16,449.10
2016,06,11,08,17,481.70
2016,06,11,08,18,489.10
2016,06,11,08,19,512.40
2016,06,11,08,20,510.60
2016,06,11,08,21,469.00
2016,06,11,08,22,441.10
2016,06,11,08,23,439.00
2016,06,11,08,24,439.00
2016,06,11,08,25,439.00
2016,06,11,08,26,439.00
2016,06,11,08,27,366.90
2016,06,11,08,28,315.60
2016,06,11,08,29,344.70
2016,06,11,08,30,351.80
2016,06,11,08,31,377.40
2016,06,11,08,32,354.00
2016,06,11,08,33,404.00
2016,06,11,08,34,315.00
2016,06,11,08,35,221.00
2016,06,11,08,36,199.50
2016,06,11,08,37,180.00
2016,06,11,08,38,168.60
2016,06,11,08,39,164.30
2016,06,11,08,40,152.90
2016,06,11,08,41,139.40
2016,06,11,08,42,130.00
2016,06,11,08,43,121.60
2016,06,11,08,44,113.40
2016,06,11,08,45,106.00
2016,06,11,08,46,102.00
2016,06,11,08,47,102.00
2016,06,11,08,48,103.80
2016,06,11,08,49,107.90
2016,06,11,08,50,110.60
2016,06,11,08,51,122.00
2016,06,11,08,52,141.70
2016,06,11,08,53,174.90
2016,06,11,08,54,210.70
2016,06,11,08,55,258.70
2016,06,11,08,56,302.00
2016,06,11,08,57,339.30
2016,06,11,08,58,346.00
2016,06,11,08,59,303.40
2016,06,11,09,00,161.40
2016,06,11,09,01,147.70
2016,06,11,09,02,142.20
2016,06,11,09,03,138.20
2016,06,11,09,04,134.40
2016,06,11,09,05,123.80
2016,06,11,09,06,110.40
2016,06,11,09,07,100.60
2016,06,11,09,08,100.00
2016,06,11,09,09,103.80
2016,06,11,09,10,102.80
2016,06,11,09,11,96.00
2016,06,11,09,12,87.00
2016,06,11,09,13,74.30
2016,06,11,09,14,65.40
2016,06,11,09,15,66.70
2016,06,11,09,16,79.90
2016,06,11,09,17,104.80
2016,06,11,09,18,131.30
2016,06,11,09,19,143.60
2016,06,11,09,20,139.30
2016,06,11,09,21,133.90
2016,06,11,09,22,133.00
2016,06,11,09,23,131.30
2016,06,11,09,24,126.00
2016,06,11,09,25,127.60
2016,06,11,09,26,148.20
2016,06,11,09,27,180.30
2016,06,11,09,28,199.10
2016,06,11,09,29,198.20
2016,06,11,09,30,195.00
2016,06,11,09,31,199.00
2016,06,11,09,32,209.00
2016,06,11,09,33,231.40
2016,06,11,09,34,257.90
2016,06,11,09,35,274.00
2016,06,11,09,36,268.30
2016,06,11,09,37,257.60
2016,06,11,09,38,244.80
2016,06,11,09,39,232.40
2016,06,11,09,40,230.30
2016,06,11,09,41,229.00
2016,06,11,09,42,215.80
2016,06,11,09,43,196.60
2016,06,11,09,44,177.30
2016,06,11,09,45,163.90
2016,06,11,09,46,148.10
2016,06,11,09,47,136.50
2016,06,11,09,48,132.70
2016,06,11,09,49,128.50
2016,06,11,09,50,127.60
2016,06,11,09,51,129.50
2016,06,11,09,52,128.20
2016,06,11,09,53,124.30
2016,06,11,09,54,118.00
2016,06,11,09,55,110.80
2016,06,11,09,56,95.00
2016,06,11,09,57,86.40
2016,06,11,09,58,83.30
2016,06,11,09,59,83.80
2016,06,11,10,00,89.00
2016,06,11,10,01,96.80
2016,06,11,10,02,105.40
2016,06,11,10,03,115.30
2016,06,11,10,04,124.60
2016,06,11,10,05,136.00
2016,06,11,10,06,151.60
2016,06,11,10,07,167.40
2016,06,11,10,08,186.10
2016,06,11,10,09,205.80
2016,06,11,10,10,225.10
2016,06,11,10,11,238.00
2016,06,11,10,12,248.60
2016,06,11,10,13,310.60
2016,06,11,10,14,353.50
2016,06,11,10,15,392.30
2016,06,11,10,16,439.00
2016,06,11,10,17,589.20
2016,06,11,10,18,712.00
2016,06,11,10,19,845.60
2016,06,11,10,20,960.00
2016,06,11,10,21,1031.90
2016,06,11,10,22,1075.10
2016,06,11,10,23,1141.60
2016,06,11,10,24,1183.00
2016,06,11,10,25,1183.00
2016,06,11,10,26,1183.00
2016,06,11,10,27,1112.60
2016,06,11,10,28,416.00
2016,06,11,10,29,479.60
2016,06,11,10,30,554.40
2016,06,11,10,31,568.00
2016,06,11,10,32,568.00
2016,06,11,10,33,568.00
2016,06,11,10,34,345.90
2016,06,11,10,35,338.50
2016,06,11,10,36,371.00
2016,06,11,10,37,371.00
2016,06,11,10,38,371.00
2016,06,11,10,39,371.00
2016,06,11,10,40,371.00
2016,06,11,10,41,467.70
2016,06,11,10,42,445.40
2016,06,11,10,43,469.00
2016,06,11,10,44,379.90
2016,06,11,10,45,256.70
2016,06,11,10,46,275.30
2016,06,11,10,47,356.30
2016,06,11,10,48,399.30
2016,06,11,10,49,443.00
2016,06,11,10,50,443.00
2016,06,11,10,51,443.00
2016,06,11,10,52,443.00
2016,06,11,10,53,745.90
2016,06,11,10,54,867.00
2016,06,11,10,55,892.60
2016,06,11,10,56,1046.00
2016,06,11,10,57,1046.00
2016,06,11,10,58,1046.00
2016,06,11,10,59,1046.00
2016,06,11,11,00,652.40
2016,06,11,11,01,554.00
2016,06,11,11,02,554.00
2016,06,11,11,03,554.00
2016,06,11,11,04,575.00
2016,06,11,11,05,621.90
2016,06,11,11,06,636.00
2016,06,11,11,07,441.00
2016,06,11,11,08,381.20
2016,06,11,11,09,388.90
2016,06,11,11,10,401.60
2016,06,11,11,11,430.10
2016,06,11,11,12,463.00
2016,06,11,11,13,540.70
2016,06,11,11,14,596.40
2016,06,11,11,15,599.20
2016,06,11,11,16,526.00
2016,06,11,11,17,611.30
2016,06,11,11,18,782.00
2016,06,11,11,19,782.00
2016,06,11,11,20,757.50
2016,06,11,11,21,747.00
2016,06,11,11,22,722.00
2016,06,11,11,23,485.00
2016,06,11,11,24,504.20
2016,06,11,11,25,558.00
2016,06,11,11,26,582.00
2016,06,11,11,27,460.00
2016,06,11,11,28,428.10
2016,06,11,11,29,473.00
2016,06,11,11,30,425.10
2016,06,11,11,31,261.70
2016,06,11,11,32,241.00
2016,06,11,11,33,254.80
2016,06,11,11,34,279.00
2016,06,11,11,35,285.00
2016,06,11,11,36,295.90
2016,06,11,11,37,305.80
2016,06,11,11,38,266.70
2016,06,11,11,39,262.00
2016,06,11,11,40,259.60
2016,06,11,11,41,258.00
2016,06,11,11,42,282.90
2016,06,11,11,43,322.20
2016,06,11,11,44,334.00
2016,06,11,11,45,319.90
2016,06,11,11,46,290.00
2016,06,11,11,47,262.20
2016,06,11,11,48,248.00
2016,06,11,11,49,250.50
2016,06,11,11,50,262.40
2016,06,11,11,51,280.60
2016,06,11,11,52,295.00
2016,06,11,11,53,296.40
2016,06,11,11,54,285.10
2016,06,11,11,55,270.30
2016,06,11,11,56,270.60
2016,06,11,11,57,270.40
2016,06,11,11,58,255.10
2016,06,11,11,59,245.80
2016,06,11,12,00,257.30
2016,06,11,12,01,268.50
2016,06,11,12,02,269.50
2016,06,11,12,03,271.20
2016,06,11,12,04,280.60
2016,06,11,12,05,292.90
2016,06,11,12,06,309.80
2016,06,11,12,07,330.90
2016,06,11,12,08,345.30
2016,06,11,12,09,362.70
2016,06,11,12,10,405.80
2016,06,11,12,11,440.20
2016,06,11,12,12,438.10
2016,06,11,12,13,444.90
2016,06,11,12,14,443.10
2016,06,11,12,15,432.30
2016,06,11,12,16,431.40
2016,06,11,12,17,437.60
2016,06,11,12,18,438.30
2016,06,11,12,19,452.10
2016,06,11,12,20,472.50
2016,06,11,12,21,505.30
2016,06,11,12,22,519.00
2016,06,11,12,23,586.20
2016,06,11,12,24,547.10
2016,06,11,12,25,492.00
2016,06,11,12,26,450.30
2016,06,11,12,27,460.50
2016,06,11,12,28,422.60
2016,06,11,12,29,372.90
2016,06,11,12,30,356.50
2016,06,11,12,31,353.70
2016,06,11,12,32,372.80
2016,06,11,12,33,403.20
2016,06,11,12,34,422.00
2016,06,11,12,35,459.40
2016,06,11,12,36,530.00
2016,06,11,12,37,502.30
2016,06,11,12,38,494.00
2016,06,11,12,39,494.00
2016,06,11,12,40,495.10
2016,06,11,12,41,501.30
2016,06,11,12,42,510.70
2016,06,11,12,43,558.60
2016,06,11,12,44,640.30
2016,06,11,12,45,652.00
2016,06,11,12,46,652.00
2016,06,11,12,47,643.60
2016,06,11,12,48,631.00
2016,06,11,12,49,631.00
2016,06,11,12,50,631.00
2016,06,11,12,51,1239.60
2016,06,11,12,52,1315.00
2016,06,11,12,53,1315.00
2016,06,11,12,54,1315.00
2016,06,11,12,55,1315.00
2016,06,11,12,56,1315.00
2016,06,11,12,57,1315.00
2016,06,11,12,58,1315.00
2016,06,11,12,59,1315.00
2016,06,11,13,00,1315.00
2016,06,11,13,01,906.60
2016,06,11,13,02,360.80
2016,06,11,13,03,369.50
2016,06,11,13,04,374.00
2016,06,11,13,05,409.10
2016,06,11,13,06,442.50
2016,06,11,13,07,610.70
2016,06,11,13,08,664.00
2016,06,11,13,09,664.00
2016,06,11,13,10,664.00
2016,06,11,13,11,568.80
2016,06,11,13,12,552.00
2016,06,11,13,13,587.50
2016,06,11,13,14,708.00
2016,06,11,13,15,613.00
2016,06,11,13,16,471.20
2016,06,11,13,17,469.70
2016,06,11,13,18,479.40
2016,06,11,13,19,466.00
2016,06,11,13,20,483.00
2016,06,11,13,21,769.30
2016,06,11,13,22,1260.00
2016,06,11,13,23,1131.90
2016,06,11,13,24,1053.00
2016,06,11,13,25,1204.10
2016,06,11,13,26,1114.80
2016,06,11,13,27,519.00
2016,06,11,13,28,453.40
2016,06,11,13,29,338.20
2016,06,11,13,30,315.60
2016,06,11,13,31,312.50
2016,06,11,13,32,352.40
2016,06,11,13,33,382.20
2016,06,11,13,34,401.70
2016,06,11,13,35,418.40
2016,06,11,13,36,471.30
2016,06,11,13,37,510.00
2016,06,11,13,38,688.30
2016,06,11,13,39,744.00
2016,06,11,13,40,506.00
2016,06,11,13,41,506.00
2016,06,11,13,42,492.80
2016,06,11,13,43,473.00
2016,06,11,13,44,473.00
2016,06,11,13,45,568.20
2016,06,11,13,46,630.20
2016,06,11,13,47,1394.00
2016,06,11,13,48,1394.00
2016,06,11,13,49,1076.90
2016,06,11,13,50,597.40
2016,06,11,13,51,529.80
2016,06,11,13,52,506.00
2016,06,11,13,53,466.00
2016,06,11,13,54,448.00
2016,06,11,13,55,482.60
2016,06,11,13,56,547.00
2016,06,11,13,57,635.00
2016,06,11,13,58,669.00
2016,06,11,13,59,650.00
2016,06,11,14,00,533.60
2016,06,11,14,01,531.90
2016,06,11,14,02,567.30
2016,06,11,14,03,557.40
2016,06,11,14,04,563.50
2016,06,11,14,05,589.00
2016,06,11,14,06,589.00
2016,06,11,14,07,671.00
2016,06,11,14,08,609.50
2016,06,11,14,09,411.70
2016,06,11,14,10,380.30
2016,06,11,14,11,370.60
2016,06,11,14,12,361.90
2016,06,11,14,13,375.30
2016,06,11,14,14,392.40
2016,06,11,14,15,458.00
2016,06,11,14,16,417.00
2016,06,11,14,17,372.00
2016,06,11,14,18,419.40
2016,06,11,14,19,446.00
2016,06,11,14,20,446.00
2016,06,11,14,21,1138.40
2016,06,11,14,22,1100.40
2016,06,11,14,23,1044.00
2016,06,11,14,24,1113.10
2016,06,11,14,25,1176.00
2016,06,11,14,26,774.20
2016,06,11,14,27,601.70
2016,06,11,14,28,610.90
2016,06,11,14,29,700.00
2016,06,11,14,30,820.40
2016,06,11,14,31,1014.50
2016,06,11,14,32,1027.30
2016,06,11,14,33,1035.00
2016,06,11,14,34,1035.00
2016,06,11,14,35,954.30
2016,06,11,14,36,510.00
2016,06,11,14,37,536.00
2016,06,11,14,38,536.00
2016,06,11,14,39,536.00
2016,06,11,14,40,536.00
2016,06,11,14,41,532.60
2016,06,11,14,42,464.00
2016,06,11,14,43,464.00
2016,06,11,14,44,464.00
2016,06,11,14,45,464.00
2016,06,11,14,46,774.50
2016,06,11,14,47,891.00
2016,06,11,14,48,431.00
2016,06,11,14,49,408.00
2016,06,11,14,50,408.00
2016,06,11,14,51,527.50
2016,06,11,14,52,647.00
2016,06,11,14,53,963.20
2016,06,11,14,54,1054.30
2016,06,11,14,55,1061.20
2016,06,11,14,56,1088.90
2016,06,11,14,57,1077.20
2016,06,11,14,58,1074.00
2016,06,11,14,59,1078.00
2016,06,11,15,00,1081.00
2016,06,11,15,01,837.90
2016,06,11,15,02,795.00
2016,06,11,15,03,795.00
2016,06,11,15,04,795.00
2016,06,11,15,05,656.70
2016,06,11,15,06,551.80
2016,06,11,15,07,563.00
2016,06,11,15,08,563.00
2016,06,11,15,09,563.00
2016,06,11,15,10,563.00
2016,06,11,15,11,652.20
2016,06,11,15,12,786.00
2016,06,11,15,13,786.00
2016,06,11,15,14,1083.60
2016,06,11,15,15,1124.10
2016,06,11,15,16,1167.00
2016,06,11,15,17,1167.00
2016,06,11,15,18,1140.30
2016,06,11,15,19,1071.90
2016,06,11,15,20,1060.80
2016,06,11,15,21,1078.50
2016,06,11,15,22,1097.40
2016,06,11,15,23,1061.30
2016,06,11,15,24,835.00
2016,06,11,15,25,693.10
2016,06,11,15,26,504.00
2016,06,11,15,27,504.00
2016,06,11,15,28,504.00
2016,06,11,15,29,530.60
2016,06,11,15,30,1063.00
2016,06,11,15,31,1063.00
2016,06,11,15,32,1063.00
2016,06,11,15,33,702.40
2016,06,11,15,34,472.30
2016,06,11,15,35,412.30
2016,06,11,15,36,388.40
2016,06,11,15,37,383.30
2016,06,11,15,38,371.20
2016,06,11,15,39,353.60
2016,06,11,15,40,339.70
2016,06,11,15,41,333.10
2016,06,11,15,42,329.60
2016,06,11,15,43,334.70
2016,06,11,15,44,345.90
2016,06,11,15,45,343.30
2016,06,11,15,46,326.90
2016,06,11,15,47,319.90
2016,06,11,15,48,313.90
2016,06,11,15,49,309.70
2016,06,11,15,50,311.20
2016,06,11,15,51,313.40
2016,06,11,15,52,318.30
2016,06,11,15,53,327.40
2016,06,11,15,54,327.00
2016,06,11,15,55,330.10
2016,06,11,15,56,350.10
2016,06,11,15,57,413.00
2016,06,11,15,58,413.00
2016,06,11,15,59,407.40
2016,06,11,16,00,380.50
2016,06,11,16,01,351.40
2016,06,11,16,02,332.50
2016,06,11,16,03,329.00
2016,06,11,16,04,357.00
2016,06,11,16,05,369.60
2016,06,11,16,06,410.90
2016,06,11,16,07,427.00
2016,06,11,16,08,427.00
2016,06,11,16,09,402.20
2016,06,11,16,10,387.10
2016,06,11,16,11,240.40
2016,06,11,16,12,221.90
2016,06,11,16,13,212.80
2016,06,11,16,14,208.40
2016,06,11,16,15,201.30
2016,06,11,16,16,195.80
2016,06,11,16,17,201.90
2016,06,11,16,18,214.50
2016,06,11,16,19,222.30
2016,06,11,16,20,227.10
2016,06,11,16,21,232.20
2016,06,11,16,22,238.70
2016,06,11,16,23,246.70
2016,06,11,16,24,250.90
2016,06,11,16,25,253.00
2016,06,11,16,26,254.30
2016,06,11,16,27,259.20
2016,06,11,16,28,268.50
2016,06,11,16,29,283.30
2016,06,11,16,30,298.30
2016,06,11,16,31,304.10
2016,06,11,16,32,311.00
2016,06,11,16,33,316.20
2016,06,11,16,34,311.20
2016,06,11,16,35,306.00
2016,06,11,16,36,299.00
2016,06,11,16,37,292.70
2016,06,11,16,38,284.80
2016,06,11,16,39,282.50
2016,06,11,16,40,280.00
2016,06,11,16,41,276.20
2016,06,11,16,42,272.80
2016,06,11,16,43,271.20
2016,06,11,16,44,269.30
2016,06,11,16,45,271.30
2016,06,11,16,46,275.00
2016,06,11,16,47,280.50
2016,06,11,16,48,290.20
2016,06,11,16,49,312.10
2016,06,11,16,50,332.90
2016,06,11,16,51,340.30
2016,06,11,16,52,390.90
2016,06,11,16,53,468.00
2016,06,11,16,54,468.00
2016,06,11,16,55,489.00
2016,06,11,16,56,510.00
2016,06,11,16,57,510.00
2016,06,11,16,58,510.00
2016,06,11,16,59,505.10
2016,06,11,17,00,487.10
2016,06,11,17,01,515.00
2016,06,11,17,02,463.90
2016,06,11,17,03,442.30
2016,06,11,17,04,455.00
2016,06,11,17,05,453.60
2016,06,11,17,06,421.30